Regional Weather Roundup
Issued by NWS State College, PA

Current Version | Previous Version | Text Only | Print | Product List | Glossary On
Versions: 1 2 3 4 5 6 7 8 9 10 11 12 13 14 15 16 17 18 19 20 21 22 23 24 25 26 27 28 29 30 31 32 33 34 35 36 37 38 39 40 41 42 43 44 45 46 47 48 49 50
000
ASUS41 KCTP 300910
RWRCTP

REGIONAL WEATHER ROUNDUP
NATIONAL WEATHER SERVICE STATE COLLEGE PA
500 AM EDT MON MAY 30 2016

Note: "fair" indicates few or no clouds below 12,000 feet with no
significant weather and/or obstructions to visibility.

* = STATION THAT DOES NOT REPORT PRECIPITATION /E.G. RAIN...SNOW...ETC/
    THUNDER OR FOG.

PAZ002>004-007>009-013>016-020>023-029>032-301000-
WESTERN PENNSYLVANIA

CITY           SKY/WX    TMP DP  RH WIND       PRES   REMARKS
ERIE           MOCLDY    68  59  73 SW5       29.97R
MEADVILLE      PTCLDY    62  61  96 S7        30.00R
FRANKLIN*      CLOUDY    61  57  88 S8        30.04R
NEW CASTLE     FAIR      61  60  97 CALM      30.02R FOG
BEAVER COUNTY  NOT AVBL
BUTLER*        PTCLDY   N/A N/A N/A CALM      30.03S
PITTSBURGH INT MOCLDY    62  58  86 CALM      30.01S
PITTSBURGH     CLOUDY    62  59  90 S3        30.01S
INDIANA*       FOG       57  57 100 CALM      30.06S VSB 1/2
LATROBE        FOG       57  57 100 CALM      30.03S VSB<1/4
WASHINGTON CO*   N/A     55  54  94 CALM      30.03R VSB 3/4
$$

PAZ004>006-010>012-017>019-024>028-033>037-041-042-045-046-049>053-301000-
CENTRAL PENNSYLVANIA

CITY           SKY/WX    TMP DP  RH WIND       PRES   REMARKS
BRADFORD       CLEAR     56  53  90 CALM      30.02F
DUBOIS         PTCLDY    58  56  93 CALM      30.02S
CLEARFIELD     FOG       59  57  93 CALM      30.03F VSB 1/4
JOHNSTOWN      CLEAR     59  54  83 S6        30.05S
ALTOONA        PTCLDY    60  58  92 CALM      30.04S
STATE COLLEGE  PTCLDY    61  58  90 CALM      30.03S
WILLIAMSPORT   MOCLDY    67  59  75 E3        29.99S
SELINSGROVE    CLOUDY    65  62  90 CALM      30.01S
FT INDIANTOWN  CLOUDY    64  64 100 W6        30.01S
CAPITAL CITY   CLOUDY    65  61  87 CALM      30.01S
HARRISBURG     CLOUDY    65  62  90 CALM      30.00S
YORK           CLOUDY    63  62  97 CALM      30.01F
$$

PAZ038>040-043-044-047-048-054-055-060>062-067>071-301000-
EASTERN PENNSYLVANIA

CITY           SKY/WX    TMP DP  RH WIND       PRES   REMARKS
SCRANTON       LGT RAIN  63  60  90 CALM      30.01F
MOUNT POCONO   LGT RAIN  61 N/A N/A NW3       30.05R
ALLENTOWN      RAIN      66  64  94 NE5       30.00F FOG
QUAKERTOWN*    CLOUDY    66  66 100 CALM      30.01S
READING        CLOUDY    66  64  93 CALM      29.99F
LANCASTER      CLOUDY    65  64  97 W3        30.00F
COATESVILLE    CLOUDY    66  64  94 NW7       30.03R
POTTSTOWN      LGT RAIN  67  66  97 SW3       30.02S FOG
BLUE BELL      CLOUDY    66  66 100 CALM      29.99R
DOYLESTOWN     CLOUDY    66  66 100 CALM      29.99S
WILLOW GROVE   NOT AVBL
NORTH PHILA    LGT RAIN  68  67  96 CALM      30.00S FOG
PHILADELPHIA   CLOUDY    71  69  93 CALM      30.00R
$$



USA.gov is the U.S. government's official web portal to all federal, state and local government web resources and services.